This demonstration page uses our WeatherBlox Daily Observations layout. Learn more.

Left ArrowRight Arrow

Hourly Observations for August 13, 2022

Temp ( °F °C ) Dew Point ( °F °C ) Humidity (%) Winds ( mph kmh ) Pressure ( in mb ) Visibility ( mi km ) Precip ( " mm )
12:54 am 00:54 Clear 78 25.6 61 16.1 56 56 S 13 20 29.94 1014 10 16 0.00 0.00
1:54 am 01:54 Mostly Clear 78 25.6 61 16.1 56 56 SSW 10 17 29.95 1014 10 16 0.00 0.00
2:54 am 02:54 Mostly Clear 77 25 61 16.1 58 58 SSW 9 15 29.96 1015 10 16 0.00 0.00
3:54 am 03:54 Clear 76 24.4 61 16.1 60 60 SSW 9 15 29.96 1015 10 16 0.00 0.00
4:54 am 04:54 Clear 75 23.9 61 16.1 62 62 SSW 9 15 29.96 1015 10 16 0.00 0.00
5:54 am 05:54 Mostly Cloudy 75 23.9 62 16.7 64 64 SSW 6 9 29.97 1015 10 16 0.00 0.00
6:54 am 06:54 Mostly Sunny 74 23.3 62 16.7 66 66 S 6 9 29.98 1015 10 16 0.00 0.00
7:54 am 07:54 Sunny 74 23.3 63 17.2 69 69 S 5 7 29.98 1015 10 16 0.00 0.00
8:54 am 08:54 Sunny 79 26.1 64 17.8 60 60 SSW 8 13 29.96 1015 10 16 0.00 0.00
9:54 am 09:54 Sunny 85 29.4 62 16.7 46 46 WSW 14 22 29.96 1015 10 16 0.00 0.00
10:54 am 10:54 Sunny 88 31.1 62 16.7 42 42 W 12 19 29.96 1015 10 16 0.00 0.00
11:54 am 11:54 Sunny 91 32.8 61 16.1 37 37 NNW 9 15 29.96 1015 10 16 0.00 0.00
12:54 pm 12:54 Sunny 91 32.8 62 16.7 38 38 NNW 12 19 29.96 1015 10 16 0.00 0.00
1:54 pm 13:54 Sunny 91 32.8 67 19.4 45 45 NNE 10 17 29.96 1015 10 16 0.00 0.00
2:54 pm 14:54 Sunny 91 32.8 71 21.7 52 52 NE 10 17 29.95 1014 10 16 0.00 0.00
3:54 pm 15:54 Sunny 87 30.6 72 22.2 61 61 N 12 19 29.95 1014 10 16 0.00 0.00
4:54 pm 16:54 Mostly Sunny 90 32.2 71 21.7 54 54 NNE 14 22 29.94 1014 10 16 0.00 0.00
5:54 pm 17:54 Mostly Sunny 89 31.7 70 21.1 54 54 NNE 12 19 29.95 1014 10 16 0.00 0.00
6:54 pm 18:54 Mostly Sunny 86 30 70 21.1 59 59 NNE 14 22 29.96 1014 10 16 0.00 0.00
7:54 pm 19:54 Sunny 81 27.2 68 20 65 65 NNE 16 26 29.95 1014 10 16 0.00 0.00
8:54 pm 20:54 Clear 77 25 68 20 74 74 NE 10 17 29.96 1015 10 16 0.00 0.00
9:54 pm 21:54 Clear 75 23.9 67 19.4 76 76 NNE 8 13 29.97 1015 10 16 0.00 0.00
10:54 pm 22:54 Clear 74 23.3 66 18.9 76 76 NNE 7 11 29.97 1015 10 16 0.00 0.00
11:54 pm 23:54 Clear 74 23.3 66 18.9 76 76 NNE 6 9 29.98 1015 10 16 0.00 0.00

Powered by AerisWeather